Theta_e
319 319 320 320 318 319 318 319 320 320 321 320 322 328 328 336 336 336 337 337 337 334 329 330 332 333 332 333 331 326 322 320
317 315 316 316 317 315 317 317 317 317 317 315 319 318 319 322 324 326 324 328 334 337 337 336 335 331 331 331 333 332 327 324
316 316 315 315 314 315 314 313 315 316 315 313 317 314 316 316 317 318 320 317 322 325 333 335 336 336 336 334 330 334 332 328
316 316 315 315 315 314 315 314 313 315 315 313 316 314 313 313 312 314 313 314 316 326 322 322 325 331 332 335 335 332 332 333
315 315 315 314 315 315 314 314 313 313 313 313 314 311 312 312 311 310 312 313 313 316 316 316 315 316 319 325 332 334 335 334
315 315 314 314 314 313 314 313 312 312 312 312 311 310 311 309 309 310 309 312 310 310 311 312 313 316 318 316 318 326 332 334
314 314 313 313 314 313 312 312 310 311 310 310 310 308 309 307 307 306 307 305 303 304 307 310 312 313 314 318 315 315 317 326
313 313 311 311 313 311 311 312 310 310 309 309 306 305 306 305 305 304 303 300 300 303 305 305 306 306 309 311 314 314 314 314
312 312 309 308 309 310 309 309 308 309 308 305 303 303 302 300 300 301 299 298 299 298 299 300 301 302 303 305 307 309 311 314
311 309 307 306 306 307 307 307 306 306 305 302 301 300 297 296 297 297 296 296 296 297 297 297 299 299 300 301 304 305 306 308
308 307 304 304 304 305 304 304 305 304 302 300 298 296 294 294 294 293 293 293 293 295 294 295 295 298 298 299 300 302 304 307
305 305 303 302 302 302 301 302 301 301 299 298 295 294 292 292 291 291 291 291 291 292 292 292 293 294 294 295 298 300 302 304
304 304 301 300 299 300 299 299 299 298 297 295 293 292 291 290 290 290 290 290 290 291 290 291 291 292 292 293 295 299 303 305
303 302 299 298 297 297 297 297 297 296 294 292 291 290 290 289 289 290 290 290 289 289 289 290 291 291 291 292 296 299 297 295
301 300 298 296 295 294 294 295 295 294 293 292 289 289 288 289 289 289 289 290 288 289 289 289 290 290 291 291 296 296 293 297
300 299 297 295 295 294 293 293 294 293 293 291 289 288 288 288 286 288 289 289 288 288 288 288 289 289 289 290 290 291 293 295
298 297 296 295 295 293 293 293 293 292 292 291 289 287 287 287 285 287 287 288 288 287 287 288 287 287 288 289 289 290 290 292
297 296 295 294 293 292 291 292 292 291 290 290 288 286 285 285 285 286 287 286 286 286 286 287 286 286 287 287 289 289 290 289
296 295 295 293 292 291 291 291 291 290 289 289 288 287 286 285 285 285 286 284 283 284 286 286 285 285 286 286 287 288 288 288
294 294 293 292 291 290 290 291 290 290 288 288 287 287 286 285 285 285 286 285 283 284 285 285 285 285 285 285 286 287 287 288
Wind_Speed
27 25 23 24 29 27 28 26 25 25 25 22 28 23 23 21 20 19 20 22 25 28 29 28 28 27 26 26 25 23 22 21
29 30 28 25 24 25 24 25 25 25 25 27 28 24 28 23 25 23 27 25 24 21 25 29 31 31 30 30 30 28 27 26
29 29 29 27 24 25 25 24 26 24 26 30 28 28 28 28 29 25 26 30 31 26 23 20 25 32 36 35 33 32 33 32
27 26 28 27 25 26 24 26 27 25 26 28 26 28 29 29 28 30 31 30 31 25 30 29 27 20 21 31 36 36 37 32
25 27 29 30 27 27 25 24 26 26 25 29 24 31 30 32 30 32 31 30 32 30 27 27 34 31 33 29 25 32 36 36
26 27 30 30 26 27 26 22 26 27 25 27 27 28 27 32 32 31 31 30 33 36 33 34 33 31 27 30 32 27 25 33
26 28 30 28 25 27 26 21 23 24 25 26 27 27 27 29 31 31 31 34 36 37 35 35 34 31 29 29 31 33 35 26
25 25 29 25 26 25 25 25 25 25 24 24 29 29 29 28 27 27 29 38 37 32 31 34 34 34 32 30 28 29 32 37
24 23 29 28 28 26 26 27 27 26 25 28 33 32 32 33 30 28 29 32 31 35 33 32 35 37 36 34 34 32 31 33
25 25 27 29 27 26 24 25 24 24 25 30 32 30 33 32 27 28 32 30 31 30 30 34 29 29 31 34 32 33 36 33
26 26 27 27 25 24 25 25 24 24 26 28 28 32 33 30 27 29 31 28 29 27 30 28 31 31 30 32 34 35 33 33
23 23 25 26 25 24 24 24 25 24 26 26 30 32 30 29 28 30 30 30 30 29 29 29 27 30 34 35 30 34 35 33
21 23 27 28 27 26 26 25 23 23 23 25 29 29 28 27 29 30 30 29 30 28 29 27 27 27 29 35 30 32 26 21
23 26 27 27 27 26 25 23 21 22 24 26 25 27 27 26 29 28 28 27 29 29 28 27 20 25 20 25 9 17 20 37
21 22 23 24 24 23 24 22 21 22 21 21 23 26 28 26 30 30 30 26 29 29 28 28 23 25 21 11 5 5 16 14
18 21 22 22 20 21 22 22 21 22 23 19 22 25 25 28 32 31 29 27 29 30 29 27 26 24 25 13 18 21 5 9
19 19 20 22 21 21 22 22 23 22 23 22 20 24 26 28 33 31 31 29 29 30 30 25 27 24 23 23 22 21 16 7
18 19 19 20 22 22 23 24 23 24 25 23 20 21 25 28 31 29 28 31 31 32 30 26 27 28 26 25 22 17 15 11
18 19 19 21 21 22 22 23 21 20 23 23 24 21 21 28 29 30 27 32 34 31 29 27 28 28 26 26 24 22 20 17
17 18 19 20 21 21 23 23 24 20 21 23 24 24 23 24 26 29 28 27 34 31 26 26 30 27 30 29 27 24 26 22
Wind_Direction
45 40 33 36 41 37 37 33 27 23 16 14 13 14 3 354 342 330 320 305 302 296 291 285 281 277 273 271 266 255 245 231
39 34 33 33 33 31 26 27 22 19 10 14 11 360 4 356 355 349 340 336 315 301 290 292 287 281 274 271 268 264 253 246
41 31 32 27 26 22 25 24 19 17 15 9 7 6 359 359 348 348 348 342 333 323 309 296 291 283 282 273 265 260 258 253
44 33 26 23 22 18 15 17 15 10 15 19 11 6 0 357 355 346 344 343 336 330 336 328 314 315 310 280 265 256 253 244
35 29 22 19 15 13 10 13 10 5 8 14 10 4 1 359 352 351 346 343 339 341 341 337 329 323 314 302 296 261 248 243
25 29 22 14 14 8 1 16 8 360 7 13 15 358 359 356 350 348 347 347 349 340 339 335 325 319 317 318 311 295 284 257
25 28 22 8 7 3 357 19 8 358 1 4 22 10 359 351 348 347 347 348 347 339 335 329 325 322 318 314 317 318 302 298
27 24 22 8 6 1 359 8 4 352 358 26 10 11 3 356 353 350 349 344 344 340 339 337 334 333 332 328 324 316 315 308
18 13 18 10 4 2 3 1 359 358 10 14 5 10 7 2 353 351 349 345 342 339 340 336 331 329 326 324 321 317 314 307
27 24 18 5 2 360 360 358 356 359 15 16 10 8 5 359 354 351 351 350 347 342 340 333 328 322 315 313 309 306 303 298
24 21 15 2 2 1 4 1 3 13 18 16 13 10 2 359 357 351 350 349 347 344 337 334 327 325 320 311 302 295 290 291
18 16 17 7 6 4 5 4 8 16 13 14 13 8 1 360 357 353 352 349 347 341 341 336 332 327 322 310 302 291 279 273
19 24 19 15 7 6 5 1 5 10 10 16 13 3 1 359 355 352 353 352 346 340 340 338 334 335 327 323 308 289 282 288
25 23 18 16 10 9 3 356 2 10 9 10 9 5 0 356 356 353 348 349 348 344 341 336 334 336 333 318 325 320 6 330
23 20 17 16 12 12 5 3 360 360 2 10 9 2 360 358 358 354 352 352 348 344 343 342 335 339 342 318 328 319 329 324
23 21 15 11 12 11 4 2 353 357 360 7 11 1 360 2 357 352 353 354 352 347 346 347 346 340 337 335 309 303 318 314
26 18 14 8 11 15 5 359 352 356 3 5 11 4 0 360 357 352 353 351 350 349 349 349 352 343 337 330 325 316 309 320
15 14 16 10 11 10 4 357 360 2 4 2 5 9 358 356 355 350 354 356 353 351 349 352 353 348 343 340 332 325 324 317
10 12 15 14 8 5 1 1 359 8 4 359 3 2 2 358 355 350 355 358 356 349 349 352 354 354 345 344 339 330 329 322
9 9 14 7 4 6 359 359 1 10 7 3 2 0 359 358 357 353 351 358 355 351 346 353 350 355 350 352 342 344 339 330